Flag for United Kingdom Weather past 2 weeks in Peterborough, England, United Kingdom

Now
61 °F

Broken clouds.


Feels Like: 61 °F
Forecast: 59 / 72 °F
Wind: 13 mph from South

Location: Wittering

Current Time: Aug 5, 2015 at 8:35:39 AM

Latest Report: Aug 5, 2015 at 7:50 AM


Visibility: N/A

Pressure: 29.95 "Hg

Humidity: 72%

Dew point: 52 °F

Location of PeterboroughLocation

Historic Weather in Peterborough — Graph

°F

Peterborough temperature yesterday

Maximum temperature yesterday: 66 °F (at 10:50 AM)
Minimum temperature yesterday: 52 °F (at 5:50 AM)
Average temperature yesterday: 61 °F

Past Weeks' High & Low Weather Summary

 TemperatureHumidityPressure
High77 °F (Aug 2, 4:50 PM)100% (Jul 24, 2:50 PM)30.12 "Hg (Jul 24, 2:50 PM)
Low43 °F (Jul 31, 4:50 AM)35% (Jul 23, 4:50 PM)29.33 "Hg (Jul 27, 2:50 AM)
Average59 °F72%29.85 "Hg
* Reported Jul 21 6:50 AM — Aug 5 6:50 AM, Peterborough, Weather by CustomWeather, © 2015

Note: Actual official high and low records may vary slightly from our data, if they occured in-between our weather recording intervals... More about our weather records

Advertising

Peterborough weather history for previous 24 hours

 ConditionsComfort  
Time TempWeatherWind HumidityBarometerVisibility
6:50 AM
Wed, Aug 5
57 °FOvercast.9 mph82%29.95 "HgN/A
5:50 AM57 °FPartly cloudy.10 mph82%29.92 "HgN/A
4:50 AM57 °FOvercast.10 mph77%29.92 "HgN/A
3:50 AM57 °FOvercast.10 mph77%29.95 "HgN/A
2:50 AM57 °FOvercast.6 mph77%29.92 "HgN/A
1:50 AM59 °FOvercast.7 mph72%29.92 "HgN/A
12:50 AM59 °FPassing clouds.8 mph72%29.92 "HgN/A
11:50 PM
Tue, Aug 4
59 °FOvercast.12 mph68%29.95 "HgN/A
10:50 PM59 °FOvercast.12 mph68%29.92 "HgN/A
9:50 PM61 °FPassing clouds.13 mph63%29.92 "HgN/A
8:50 PM61 °FScattered clouds.14 mph63%29.92 "HgN/A
7:50 PM63 °FPassing clouds.15 mph59%29.89 "HgN/A
6:50 PM64 °FScattered clouds.20 mph60%29.89 "HgN/A
5:50 PM66 °FPartly sunny.17 mph56%29.86 "HgN/A
4:50 PM66 °FPartly sunny.21 mph56%29.86 "HgN/A
3:50 PM66 °FPartly sunny.17 mph56%29.86 "HgN/A
2:50 PM66 °FBroken clouds.20 mph60%29.86 "HgN/A
1:50 PM66 °FBroken clouds.20 mph56%29.83 "HgN/A
12:50 PM66 °FBroken clouds.21 mph56%29.83 "HgN/A
11:50 AM66 °FPartly sunny.21 mph60%29.83 "HgN/A
10:50 AM66 °FScattered clouds.23 mph60%29.83 "HgN/A
9:50 AM64 °FScattered clouds.21 mph60%29.83 "HgN/A
8:50 AM61 °FSunny.17 mph68%29.83 "Hg10 mi
Weather by CustomWeather, © 2015

See weather overviewHow to use our weather pages